STARLINK-32079, 60336

Orbit data source: Space-Track

STARLINK-32079, 60336 is a payload satellite owned by SpaceX/Seattle (US) in LEO that was launched on Fri, 02 Aug 2024 UTC via an FALCON 9 launch vehicle from the Air Force Eastern Test Range (AFETR). Payload-class satellites include a variety of spacecraft equipped with specific instruments for various scientific and technological missions. These include communications satellites like Starlink; space stations such as the ISS; scientific satellites like the Hubble; Earth observation satellites from companies like Planet Labs, Umbra, and HawkEye 360; GPS; miniature CubeSats for education and research; and military/defense satellites.

Loading next visibility...
Identifier
60336, 2024-136H
Orbit
LEO
Country
Flag of USUS
Related business
Manufacturer
SpaceX/Seattle
Mission
Operational Commercial Communications
Bus & Motor
STARLINK V2M, Unknown motor
Mass
730 kg wet, ~700 kg dry
Launch date (UTC)
2024-08-02 (1 year ago)
Launch vehicle
FALCON 9
Launch site
Air Force Eastern Test Range (AFETR)
Object type
Payload
Rocket body
Debris
Shape & HBR
Box + 2 Pan, 14.5 m
Radar Cross Section
33.884 m², Large (>1 m²)

Expand to show TLE details & history
Last TLE update: 13 hours ago

TLE from 13 hours ago
0 STARLINK-32079
1 60336U 24136H   25242.71244224  .00000044  00000-0  13616-4 0  9994
2 60336  53.1589 242.8389 0001327  86.7104 273.4049 15.30189805 60427
Epoch: 2025-08-30T17:05Z
TLE epoch observation values (Epoch: 2025-08-30T17:05:55.009Z)
Latitude
0.00001°
Longitude
7.2169°
Altitude
476.091 km
Speed
7.629 km/s
True Right ascension
16h 11m 21s
True Declination
0° 00' 00"
Sunlit
Object was in daylight at epoch
Visualization orbit readout
Latitude
Unknown
Longitude
Unknown
Altitude
Unknown
Speed
Unknown
Apparent Right ascension
Unknown
Apparent Declination
Unknown
Sunlit
N/A
Visualization observer readout
Local Sidereal Time
21:36:40
Azimuth
Unknown
Elevation
Unknown
Doppler factor
Unknown
Orbital elements
Apogee altitude
476.412 km
Perigee altitude
474.593 km
Semi-major axis
6,853.639 km
Eccentricity
0.00013
Inclination
53.1589°
RAAN
242.8389°
Arg. of periapsis
86.7104°
True anomaly
273.38972°
Mean anomaly
273.4049°
Eccentric anomaly
273.39731°
Mean motion
3.82526 °/min
Orbital period
94.11 mins
BSTAR
0.000013616
Loading maneuver chart data...
Computing Atmospheric mass density...
Loading historical data...
Loading historical data...
Loading historical data...
Loading historical data...
Loading historical data...
Loading historical data...
Loading historical data...

Documentation

Showing up to 5 results
|